Date String (YYYY-MM-DD hh:mm:ss) UTC,Instrument flags,Ambient pressure (hPa),Sample flow (lpm),Bypass flow (lpm),Sample temperature (°C),Ambient temperature (°C),ASC tube jacket temperature (°C),LED temperature (°C),Box temperature (°C),Sample RH (%),Span deviation,Mass concentration (μg/m³),Mass concentration (μg/m³),Mass concentration (μg/m³)
DateTimeUTC,F1_M11,P_M11,Q1_M11,Q2_M11,T1_M11,T2_M11,T3_M11,T4_M11,T5_M11,U1_M11,ZSPAN_M11,X0_M11,X2_M11,X1_M11
2022-01-25 08:00:00,,0823.4,5.01,0.00,22.5,21.8,00.0,31.4,24.3,12.4,0000.0,0007.72,0002.09,0001.58
2022-01-25 08:01:00,,0823.4,4.99,0.00,22.5,21.8,00.0,31.4,24.3,12.5,0000.0,0008.10,0002.09,0001.57
2022-01-25 08:02:00,,0823.4,4.99,0.00,22.5,21.8,00.0,31.4,24.3,12.5,0000.0,0007.63,0002.07,0001.55
2022-01-25 08:03:00,,0823.4,5.01,0.00,22.5,21.8,00.0,31.4,24.3,12.5,0000.0,0007.49,0002.06,0001.55
2022-01-25 08:04:00,,0823.4,4.99,0.00,22.5,21.8,00.0,31.4,24.2,12.4,0000.0,0007.01,0002.12,0001.57
2022-01-25 08:05:00,,0823.3,4.99,0.00,22.5,21.8,00.0,31.4,24.2,12.6,0000.0,0006.99,0002.11,0001.58
2022-01-25 08:06:00,,0823.3,5.01,0.00,22.5,21.8,00.0,31.4,24.2,12.8,0000.0,0007.18,0002.17,0001.61
2022-01-25 08:07:00,,0823.3,5.00,0.00,22.5,21.8,00.0,31.4,24.3,12.9,0000.0,0007.17,0002.21,0001.63
2022-01-25 08:08:00,,0823.3,5.00,0.00,22.5,21.8,00.0,31.4,24.3,12.9,0000.0,0007.04,0002.25,0001.66
2022-01-25 08:09:00,,0823.2,5.00,0.00,22.5,21.8,00.0,31.4,24.3,12.9,0000.0,0007.55,0002.25,0001.67
2022-01-25 08:10:00,,0823.2,4.99,0.00,22.4,21.8,00.0,31.4,24.2,12.9,0000.0,0006.80,0002.27,0001.70
2022-01-25 08:11:00,,0823.2,5.00,0.00,22.5,21.8,00.0,31.4,24.2,13.0,0000.0,0006.05,0002.30,0001.72
2022-01-25 08:12:00,,0823.2,5.01,0.00,22.4,21.8,00.0,31.4,24.2,13.1,0000.0,0005.30,0002.33,0001.73
2022-01-25 08:13:00,,0823.2,5.01,0.00,22.4,21.8,00.0,31.4,24.2,13.2,0000.0,0005.20,0002.35,0001.74
2022-01-25 08:14:00,,0823.2,4.99,0.00,22.4,21.8,00.0,31.4,24.2,13.2,0000.0,0005.24,0002.39,0001.76
2022-01-25 08:15:00,,0823.2,5.00,0.00,22.4,21.7,00.0,31.4,24.2,13.2,0000.0,0005.11,0002.33,0001.73
2022-01-25 08:16:00,,0823.3,5.00,0.00,22.4,21.7,00.0,31.4,24.2,13.2,0000.0,0005.35,0002.31,0001.72
2022-01-25 08:17:00,,0823.3,5.01,0.00,22.4,21.7,00.0,31.4,24.2,13.1,0000.0,0005.58,0002.27,0001.70
2022-01-25 08:18:00,,0823.2,4.99,0.00,22.4,21.7,00.0,31.4,24.2,13.1,0000.0,0005.67,0002.26,0001.69
2022-01-25 08:19:00,,0823.2,5.00,0.00,22.4,21.7,00.0,31.4,24.2,13.1,0000.0,0006.14,0002.31,0001.70
2022-01-25 08:20:00,,0823.2,5.00,0.00,22.4,21.7,00.0,31.4,24.2,13.1,0000.0,0005.81,0002.36,0001.71
2022-01-25 08:21:00,,0823.2,5.01,0.00,22.4,21.8,00.0,31.4,24.2,13.2,0000.0,0005.74,0002.35,0001.72
2022-01-25 08:22:00,,0823.3,4.98,0.00,22.5,22.3,00.0,31.4,24.4,13.2,0000.0,0005.94,0002.40,0001.73
2022-01-25 08:23:00,,0823.2,5.01,0.00,22.6,23.1,00.0,31.5,24.6,13.1,0000.0,0006.02,0002.41,0001.74
2022-01-25 08:24:00,,0823.2,4.99,0.00,22.7,23.1,00.0,31.5,24.7,13.1,0000.0,0006.02,0002.43,0001.73
2022-01-25 08:25:00,,0823.2,5.01,0.00,22.7,23.0,00.0,31.5,24.7,13.1,0000.0,0006.05,0002.44,0001.74
2022-01-25 08:26:00,,0823.2,5.00,0.00,22.8,22.8,00.0,31.5,24.7,13.1,0000.0,0006.29,0002.50,0001.77
2022-01-25 08:27:00,,0823.2,5.00,0.00,22.8,22.7,00.0,31.5,24.7,13.1,0000.0,0005.84,0002.50,0001.78
2022-01-25 08:28:00,,0823.3,5.00,0.00,22.8,22.6,00.0,31.5,24.7,13.2,0000.0,0005.55,0002.54,0001.80
2022-01-25 08:29:00,,0823.2,4.99,0.00,22.8,22.5,00.0,31.6,24.6,13.2,0000.0,0006.76,0002.57,0001.80
2022-01-25 08:30:00,,0823.2,5.00,0.00,22.8,22.4,00.0,31.6,24.6,13.2,0000.0,0007.42,0002.53,0001.78
2022-01-25 08:31:00,,0823.2,5.01,0.00,22.8,22.3,00.0,31.6,24.6,13.1,0000.0,0007.13,0002.50,0001.78
2022-01-25 08:32:00,,0823.2,5.00,0.00,22.8,22.3,00.0,31.6,24.6,13.1,0000.0,0007.12,0002.48,0001.77
2022-01-25 08:33:00,,0823.3,5.00,0.00,22.7,22.2,00.0,31.6,24.6,13.1,0000.0,0007.33,0002.44,0001.76
2022-01-25 08:34:00,,0823.3,5.01,0.00,22.7,22.2,00.0,31.6,24.6,13.2,0000.0,0007.26,0002.39,0001.74
2022-01-25 08:35:00,,0823.3,5.00,0.00,22.7,22.1,00.0,31.6,24.5,13.3,0000.0,0007.43,0002.35,0001.75
2022-01-25 08:36:00,,0823.2,4.99,0.00,22.7,22.1,00.0,31.6,24.5,13.4,0000.0,0007.39,0002.35,0001.75
2022-01-25 08:37:00,,0823.3,5.00,0.00,22.7,22.1,00.0,31.6,24.5,13.5,0000.0,0006.98,0002.31,0001.74
2022-01-25 08:38:00,,0823.3,5.02,0.00,22.7,22.0,00.0,31.6,24.5,13.5,0000.0,0006.85,0002.37,0001.74
2022-01-25 08:39:00,,0823.3,5.00,0.00,22.7,22.0,00.0,31.6,24.5,13.5,0000.0,0006.91,0002.39,0001.75
2022-01-25 08:40:00,,0823.3,5.00,0.00,22.7,22.0,00.0,31.6,24.4,13.5,0000.0,0006.12,0002.43,0001.76
2022-01-25 08:41:00,,0823.3,5.00,0.00,22.6,21.9,00.0,31.6,24.4,13.6,0000.0,0005.03,0002.43,0001.79
2022-01-25 08:42:00,,0823.3,5.01,0.00,22.6,21.9,00.0,31.6,24.3,13.7,0000.0,0005.23,0002.47,0001.80
2022-01-25 08:43:00,,0823.3,4.99,0.00,22.6,21.9,00.0,31.6,24.3,14.0,0000.0,0005.52,0002.57,0001.83
2022-01-25 08:44:00,,0823.3,5.00,0.00,22.6,21.9,00.0,31.6,24.3,14.2,0000.0,0005.28,0002.64,0001.88
2022-01-25 08:45:00,,0823.4,5.01,0.00,22.5,21.9,00.0,31.5,24.3,14.4,0000.0,0005.60,0002.71,0001.91
2022-01-25 08:46:00,,0823.4,5.01,0.00,22.5,21.8,00.0,31.5,24.2,14.5,0000.0,0006.04,0002.87,0001.95
2022-01-25 08:47:00,,0823.4,5.00,0.00,22.5,21.8,00.0,31.5,24.2,14.7,0000.0,0006.73,0003.01,0001.99
2022-01-25 08:48:00,,0823.4,4.99,0.00,22.5,21.8,00.0,31.5,24.2,14.8,0000.0,0006.82,0003.05,0002.03
2022-01-25 08:49:00,,0823.4,5.00,0.00,22.5,21.8,00.0,31.5,24.2,15.0,0000.0,0006.77,0003.04,0002.05
2022-01-25 08:50:00,,0823.4,5.01,0.00,22.5,21.7,00.0,31.5,24.2,15.0,0000.0,0006.84,0003.06,0002.10
2022-01-25 08:51:00,,0823.4,4.99,0.00,22.4,21.7,00.0,31.5,24.2,15.1,0000.0,0007.01,0003.07,0002.12
2022-01-25 08:52:00,,0823.4,5.00,0.00,22.4,21.7,00.0,31.5,24.1,15.2,0000.0,0007.24,0003.11,0002.14
2022-01-25 08:53:00,,0823.4,5.01,0.00,22.4,21.7,00.0,31.5,24.1,15.3,0000.0,0007.28,0003.14,0002.16
2022-01-25 08:54:00,,0823.4,5.01,0.00,22.4,21.7,00.0,31.4,24.1,15.3,0000.0,0007.78,0003.11,0002.18
2022-01-25 08:55:00,,0823.4,4.98,0.00,22.4,21.6,00.0,31.4,24.1,15.4,0000.0,0008.00,0003.14,0002.18
2022-01-25 08:56:00,,0823.4,5.01,0.00,22.3,21.6,00.0,31.4,24.1,15.4,0000.0,0008.08,0003.15,0002.20
2022-01-25 08:57:00,,0823.4,4.99,0.00,22.3,21.6,00.0,31.4,24.1,15.5,0000.0,0007.72,0003.08,0002.21
2022-01-25 08:58:00,,0823.3,4.99,0.00,22.3,21.6,00.0,31.4,24.1,15.4,0000.0,0007.67,0003.00,0002.23
2022-01-25 08:59:00,,0823.3,5.00,0.00,22.3,21.6,00.0,31.4,24.1,15.4,0000.0,0007.75,0003.02,0002.25
